[[{"header":{"parameterUnit":"m.s-1","parameterCategory":1,"la1":30.2991,"la2":30.254,"lo1":-89.0895,"lo2":-89.0444,"dy":0.0017,"dx":0.0017,"nx":28,"ny":28,"refTime":"2024-06-22T21:00:00:Z","depth":0,"parameterNumber":2,"parameterNumberName":"U-component_of_WINDS"},"data":[0,0,0,0,0,0,0,0,0,0,0,0,0,0,0,0,0,0,0,0,0,0,0,0,0,0,0,0,0,0,0,0,0,0,0,0,0,0,0,0,0,0,0,0,0,0,0,0,0,0,0,0,0,0,0,0,0,0,0.8076,0.8077,0,0.8176,0.8177,0.8178,0.8198,0.8198,0.8197,0.8196,0.8302,0.8305,0.8309,0,0,0,0,0,0,0,0,0,0,0,0,0,0.7906,0.7909,0.8076,0.8077,0.8078,0.8175,0.8177,0.8178,0.8198,0.8198,0.8197,0.8196,0.8301,0.8305,0.8309,0,0,0,0,0,0,0,0,0,0,0,0,0,0.799,0.791,0.8076,0.81,0.8103,0.8175,0.8177,0.8179,0.8199,0.8197,0.8196,0.8195,0.8299,0.8304,0.831,0.8365,0,0,0.8326,0.8328,0,0,0,0,0,0,0,0,0.7985,0.7996,0.8095,0.8099,0.8102,0.8173,0.8156,0.8241,0.8199,0.8163,0.8196,0.8195,0.826,0.8269,0.829,0.837,0.8375,0.8326,0.833,0.8332,0.8333,0,0,0,0,0,0,0,0.7979,0.7992,0.8115,0.8097,0.8101,0.8107,0.8118,0.8172,0.8217,0.8166,0.8167,0.8179,0.8262,0.8285,0.8293,0.8376,0.8326,0.8331,0.8334,0.8336,0.8507,0.8508,0,0,0,0,0,0,0.7969,0.7987,0.8112,0.8118,0.804,0.8111,0.8123,0.8152,0.8216,0.8225,0.818,0.8179,0.8276,0.8286,0.8296,0.8365,0.8332,0.8337,0.834,0.8505,0.8507,0.8508,0,0,0,0,0,0,0.7965,0.798,0.8108,0.8053,0.807,0.8115,0.8147,0.8154,0.8177,0.8227,0.8235,0.8194,0.8276,0.8289,0.8348,0.8369,0.8339,0.8344,0.8504,0.8506,0.8508,0.8504,0,0,0,0,0,0,0.796,0.7978,0.7999,0.8053,0.8073,0.8157,0.8149,0.8157,0.8186,0.8186,0.8243,0.8251,0.8276,0.834,0.8353,0.8376,0.8348,0.8502,0.8505,0.8507,0.8502,0.8505,0.8508,0,0,0,0,0,0.7954,0.7995,0.8,0.8015,0.81,0.8158,0.8169,0.8196,0.8187,0.8209,0.8241,0.8249,0.8365,0.8345,0.8361,0.8386,0.8501,0.8504,0.8507,0.8501,0.8505,0.8508,0,0,0,0,0,0,0.7944,0.8003,0.8009,0.8069,0.8108,0.8161,0.819,0.8199,0.8243,0.8242,0.8274,0.8286,0.8343,0.837,0.8348,0.8442,0.8432,0.8439,0.8423,0.8427,0.843,0.8422,0.8352,0,0,0,0,0,0.7948,0.799,0.8039,0.8087,0.8107,0.8145,0.8171,0.8188,0.823,0.8248,0.8284,0.8325,0.8371,0.84,0.8445,0.8506,0.8519,0.8531,0.8534,0.8536,0.8541,0.8575,0.858,0.8518,0.8518,0.8518,0,0,0.7959,0.7996,0.802,0.8086,0.8119,0.8161,0.8159,0.8204,0.8237,0.8255,0.8312,0.834,0.8388,0.8448,0.8476,0.8473,0.8561,0.854,0.8541,0.8545,0.8578,0.8584,0.8589,0.852,0.852,0.852,0,0,0.7999,0.8031,0.8074,0.8107,0.8155,0.818,0.819,0.8242,0.8261,0.8318,0.8332,0.8372,0.845,0.8483,0.8511,0.8562,0.8572,0.8576,0.8592,0.8625,0.8629,0.8634,0.8652,0.8658,0.8581,0.8581,0.8581,0,0.8006,0.807,0.8096,0.814,0.8169,0.8186,0.823,0.826,0.8322,0.8341,0.8336,0.8433,0.8467,0.8535,0.8547,0.8569,0.8582,0.857,0.8626,0.8631,0.8636,0.8653,0.866,0.8581,0.8581,0.8581,0.8581,0,0.8076,0.812,0.8149,0.8206,0.8238,0.8282,0.8315,0.8345,0.8359,0.8384,0.8442,0.8483,0.8536,0.8554,0.8568,0.8623,0.8619,0.862,0.861,0.8641,0.8658,0.8666,0.8582,0.8582,0.8582,0.8581,0,0,0.8114,0.8183,0.8193,0.8219,0.8273,0.8308,0.8353,0.8404,0.8428,0.847,0.8508,0.8573,0.8573,0.8604,0.8623,0.8651,0.8689,0.8648,0.865,0.8654,0.8751,0.875,0.8758,0.8695,0.8697,0.8698,0.8747,0,0.816,0.824,0.8264,0.8331,0.8372,0.8388,0.8428,0.8465,0.849,0.8529,0.8557,0.8602,0.86,0.8618,0.8647,0.8678,0.8709,0.8675,0.8732,0.8734,0.8719,0.8767,0.8766,0.8811,0.8754,0.8755,0.8756,0,0.8226,0.8266,0.8337,0.8385,0.8403,0.8438,0.8486,0.8523,0.8566,0.8582,0.8616,0.8631,0.8679,0.8667,0.8733,0.8709,0.8734,0.8753,0.8755,0.8762,0.8747,0.8774,0.8826,0.8832,0.8767,0.8766,0.8765,0,0.8245,0.8318,0.837,0.8391,0.8449,0.8473,0.8498,0.854,0.8568,0.861,0.8629,0.8676,0.8702,0.8739,0.8767,0.8755,0.8831,0.8821,0.8846,0.8845,0.8862,0.886,0.8918,0.8878,0.8878,0.8877,0.8877,0,0.8295,0.8338,0.8379,0.8411,0.8459,0.8487,0.8534,0.856,0.8597,0.8634,0.8652,0.8687,0.8722,0.8761,0.8784,0.8835,0.8847,0.8862,0.8867,0.886,0.8858,0.8877,0.8875,0.8879,0.8879,0.8878,0.8878,0,0.8325,0.8355,0.8412,0.8461,0.8475,0.8508,0.855,0.8582,0.8607,0.8654,0.8667,0.8706,0.8754,0.8785,0.8847,0.8862,0.8918,0.8923,0.8902,0.8905,0.8928,0.8925,0.9,0.9011,0.8963,0.8964,0.8964,0,0.8355,0.8388,0.844,0.8466,0.8491,0.8532,0.8561,0.8589,0.8618,0.8669,0.8695,0.8743,0.8783,0.8858,0.8893,0.894,0.8946,0.8968,0.8953,0.8944,0.8946,0.8943,0.8947,0.8971,0.8971,0.8972,0.8972,0,0.8404,0.8417,0.8457,0.8502,0.8535,0.8573,0.861,0.863,0.8665,0.8697,0.8745,0.8776,0.8837,0.8885,0.8934,0.8961,0.8973,0.8976,0.8985,0.8978,0.8964,0.8971,0.8909,0.8975,0.8974,0.8974,0.8974,0.8974,0.8435,0.8465,0.8506,0.855,0.858,0.8615,0.8646,0.8674,0.8715,0.8766,0.8781,0.883,0.8872,0.894,0.8967,0.9007,0.9005,0.9017,0.902,0.9022,0.9022,0.8958,0.9016,0.9016,0.9016,0.9016,0.9016,0,0.8485,0.8512,0.8552,0.8603,0.8637,0.8643,0.8685,0.8713,0.8756,0.8794,0.8833,0.8887,0.8933,0.8971,0.9019,0.9043,0.905,0.9055,0.9053,0.9059,0.9022,0.901,0.9049,0.9049,0.9049,0.9049,0.9049,0.9049,0.8515,0.8565,0.8583,0.8648,0.8675,0.8723,0.8746,0.8778,0.8808,0.8867,0.8905,0.8929,0.8967,0.9017,0.906,0.907,0.9086,0.909,0.9101,0.9066,0.9062,0.9058,0.9047,0.9094,0.9094,0.9135,0.9136,0.9136]},{"header":{"parameterUnit":"m.s-1","parameterCategory":1,"la1":30.2991,"la2":30.254,"lo1":-89.0895,"lo2":-89.0444,"dy":0.0017,"dx":0.0017,"nx":28,"ny":28,"refTime":"2024-06-22T21:00:00:Z","depth":0,"parameterNumber":3,"parameterNumberName":"V-component_of_WINDS"},"data":[0,0,0,0,0,0,0,0,0,0,0,0,0,0,0,0,0,0,0,0,0,0,0,0,0,0,0,0,0,0,0,0,0,0,0,0,0,0,0,0,0,0,0,0,0,0,0,0,0,0,0,0,0,0,0,0,0,0,2.7052,2.7052,0,2.7062,2.7063,2.7063,2.7085,2.7085,2.7086,2.7086,2.7095,2.7095,2.7094,0,0,0,0,0,0,0,0,0,0,0,0,0,2.7046,2.7046,2.7052,2.7052,2.7052,2.7062,2.7063,2.7063,2.7085,2.7085,2.7086,2.7086,2.7095,2.7095,2.7094,0,0,0,0,0,0,0,0,0,0,0,0,0,2.7052,2.7046,2.7052,2.7064,2.7065,2.7062,2.7063,2.7063,2.7085,2.7085,2.7086,2.7087,2.7095,2.7095,2.7094,2.7079,0,0,2.7093,2.7093,0,0,0,0,0,0,0,0,2.7052,2.7052,2.7062,2.7063,2.7065,2.7073,2.7064,2.7068,2.7085,2.7077,2.7086,2.7087,2.7087,2.7087,2.7088,2.7079,2.708,2.7093,2.7093,2.7093,2.7093,0,0,0,0,0,0,0,2.7051,2.7052,2.7056,2.7062,2.7064,2.7068,2.707,2.7065,2.7078,2.7078,2.708,2.7081,2.7088,2.7088,2.7088,2.708,2.7093,2.7093,2.7093,2.7093,2.7057,2.7056,0,0,0,0,0,0,2.7049,2.7051,2.7055,2.7056,2.706,2.7068,2.7069,2.707,2.7078,2.708,2.708,2.7082,2.7088,2.7088,2.7088,2.7069,2.7093,2.7093,2.7093,2.7058,2.7057,2.7056,0,0,0,0,0,0,2.7049,2.705,2.7055,2.7054,2.7055,2.7067,2.7067,2.707,2.707,2.708,2.7082,2.7078,2.7089,2.7089,2.7081,2.707,2.7093,2.7092,2.7059,2.7058,2.7056,2.7032,0,0,0,0,0,0,2.7049,2.7049,2.7045,2.7054,2.7055,2.7048,2.7067,2.7069,2.707,2.7072,2.7079,2.708,2.7089,2.7081,2.7081,2.707,2.7092,2.706,2.7058,2.7057,2.7034,2.703,2.7027,0,0,0,0,0,2.7049,2.7037,2.7044,2.7045,2.705,2.7048,2.7048,2.7059,2.7069,2.7063,2.7069,2.708,2.7072,2.708,2.708,2.7069,2.706,2.7059,2.7057,2.7036,2.7031,2.7027,0,0,0,0,0,0,2.7026,2.7039,2.7047,2.7038,2.7042,2.7051,2.7045,2.7055,2.7055,2.7057,2.707,2.7071,2.7061,2.7064,2.7074,2.7053,2.7068,2.7066,2.7051,2.7047,2.7044,2.7043,2.7092,0,0,0,0,0,2.702,2.7018,2.7029,2.7021,2.7022,2.7033,2.7033,2.7041,2.7045,2.7046,2.7052,2.7054,2.7052,2.705,2.7049,2.7035,2.7035,2.7027,2.7024,2.7021,2.7019,2.7009,2.7005,2.705,2.705,2.705,0,0,2.7008,2.7015,2.7013,2.7016,2.702,2.7017,2.7034,2.7031,2.7027,2.7045,2.7038,2.7042,2.7045,2.7034,2.7029,2.7036,2.7006,2.7019,2.7016,2.7016,2.7007,2.7003,2.6999,2.7049,2.7049,2.705,0,0,2.6983,2.6989,2.6982,2.6985,2.699,2.6997,2.6995,2.7003,2.7007,2.7,2.7012,2.7008,2.7005,2.7006,2.7006,2.698,2.6989,2.6979,2.6961,2.6952,2.6949,2.6945,2.6934,2.693,2.6977,2.6977,2.6977,0,2.6967,2.6963,2.6976,2.6971,2.6971,2.6988,2.6979,2.6982,2.6986,2.6985,2.6993,2.6988,2.6991,2.6979,2.6973,2.6973,2.697,2.6978,2.6948,2.6945,2.6942,2.6932,2.6928,2.6976,2.6976,2.6976,2.6976,0,2.6942,2.6939,2.6932,2.6936,2.6936,2.6929,2.6939,2.6937,2.6945,2.6951,2.6942,2.6947,2.6946,2.6944,2.6951,2.6932,2.6936,2.6946,2.696,2.6937,2.6927,2.6923,2.6974,2.6974,2.6975,2.6975,0,0,2.6904,2.6914,2.6911,2.6912,2.6919,2.6916,2.6909,2.6909,2.6906,2.6908,2.6901,2.6897,2.6905,2.6905,2.6913,2.6905,2.6882,2.6916,2.6916,2.6908,2.6859,2.685,2.6845,2.6888,2.6888,2.6887,2.6858,0,2.688,2.6869,2.688,2.6867,2.6863,2.6878,2.6871,2.6874,2.6878,2.6875,2.688,2.6876,2.6889,2.6889,2.6882,2.6886,2.6872,2.6889,2.688,2.688,2.6878,2.684,2.6832,2.6804,2.6854,2.6854,2.6853,0,2.685,2.6851,2.6837,2.6843,2.6842,2.6836,2.6835,2.6832,2.6834,2.6838,2.6837,2.6847,2.6838,2.6853,2.6841,2.6852,2.6849,2.685,2.685,2.6848,2.6864,2.6836,2.6795,2.679,2.6848,2.6848,2.6848,0,2.6821,2.6819,2.681,2.6811,2.6818,2.6813,2.6815,2.6818,2.6816,2.6815,2.6814,2.6812,2.681,2.6807,2.6815,2.6825,2.6801,2.6817,2.6802,2.6802,2.6796,2.6796,2.6752,2.6796,2.6796,2.6796,2.6796,0,2.6792,2.6783,2.6797,2.6791,2.678,2.6792,2.6781,2.6785,2.6787,2.6781,2.6794,2.6787,2.6799,2.6793,2.6799,2.6787,2.6786,2.6788,2.6789,2.6786,2.6785,2.6783,2.6785,2.6795,2.6795,2.6796,2.6796,0,2.6758,2.6767,2.6758,2.6765,2.6767,2.6758,2.6764,2.6758,2.6763,2.6755,2.6754,2.6762,2.6756,2.6764,2.6758,2.6762,2.6745,2.675,2.6744,2.6745,2.6729,2.673,2.6681,2.6675,2.6725,2.6724,2.6724,0,2.6739,2.6732,2.6738,2.6735,2.6737,2.6732,2.673,2.6741,2.6738,2.6739,2.6733,2.6728,2.6725,2.6714,2.6718,2.6714,2.6718,2.6701,2.6717,2.6713,2.6715,2.6715,2.6713,2.6697,2.6697,2.6696,2.6696,0,2.6702,2.6707,2.6704,2.6702,2.67,2.6699,2.6699,2.6696,2.6707,2.6703,2.6697,2.6694,2.6689,2.6683,2.6679,2.668,2.6689,2.6691,2.6687,2.6683,2.6679,2.6679,2.6733,2.6692,2.6692,2.6693,2.6693,2.6693,2.6673,2.6667,2.667,2.6666,2.6667,2.6666,2.6661,2.6665,2.6661,2.6657,2.6664,2.6656,2.6656,2.6652,2.6652,2.6645,2.6652,2.6647,2.6645,2.6643,2.664,2.6681,2.6644,2.6645,2.6645,2.6645,2.6645,0,2.6636,2.6638,2.6635,2.6634,2.663,2.664,2.664,2.6636,2.6629,2.6629,2.6625,2.6617,2.6612,2.6615,2.661,2.6603,2.6607,2.6601,2.6601,2.66,2.6635,2.6638,2.6598,2.6598,2.6598,2.6598,2.6598,2.6598,2.6616,2.6605,2.661,2.6599,2.6601,2.6594,2.6593,2.6591,2.6591,2.6582,2.6578,2.658,2.6581,2.6575,2.657,2.6571,2.6567,2.656,2.6562,2.6594,2.6598,2.6603,2.6606,2.6559,2.6559,2.6528,2.6528,2.6527]}]]